• en Belgique
  • Liste des pays
  • À 7 jours
  • Température de l'eau
  • Carte satellitaire
  • Carte météo
  • Widgets météo
  • user-avatar
    Se connecter

    Météo par heure à Amanzimtoti

    Ce jour, 15 Novembre, Jeudi

    Heure Température Précipitation Vent Pression Humidité
    00:00 +23°C° 0 mm 6 m/s 756 mmHg 89%
    01:00 +23°C° 0 mm 6 m/s 755 mmHg 87%
    02:00 +23°C° 0 mm 6 m/s 755 mmHg 85%
    03:00 +23°C° 0 mm 6 m/s 755 mmHg 85%
    04:00 +22°C° 0 mm 5 m/s 755 mmHg 86%
    05:00 +22°C° 0 mm 4 m/s 755 mmHg 86%
    06:00 +25°C° 0 mm 4 m/s 755 mmHg 80%
    07:00 +27°C° 0 mm 3 m/s 756 mmHg 74%
    08:00 +29°C° 0 mm 3 m/s 756 mmHg 68%
    09:00 +30°C° 0 mm 3 m/s 756 mmHg 67%
    10:00 +30°C° 0 mm 3 m/s 756 mmHg 66%
    11:00 +31°C° 0 mm 3 m/s 756 mmHg 64%
    12:00 +31°C° 0 mm 3 m/s 755 mmHg 64%
    13:00 +31°C° 0 mm 3 m/s 755 mmHg 63%
    14:00 +31°C° 0 mm 3 m/s 755 mmHg 63%
    15:00 +31°C° 0 mm 3 m/s 755 mmHg 66%
    16:00 +30°C° 0 mm 3 m/s 755 mmHg 68%
    17:00 +29°C° 0 mm 3 m/s 755 mmHg 71%
    18:00 +28°C° 0 mm 3 m/s 756 mmHg 77%
    19:00 +26°C° 0 mm 2 m/s 756 mmHg 83%
    20:00 +25°C° 0 mm 2 m/s 757 mmHg 89%
    21:00 +25°C° 0 mm 2 m/s 757 mmHg 90%
    22:00 +24°C° 0 mm 2 m/s 758 mmHg 91%
    23:00 +24°C° 0 mm 3 m/s 758 mmHg 92%

    Demain, 16 Novembre, Vendredi

    Heure Température Précipitation Vent Pression Humidité
    00:00 +24°C° 0 mm 2 m/s 758 mmHg 92%
    01:00 +24°C° 0 mm 2 m/s 758 mmHg 92%
    02:00 +24°C° 0 mm 2 m/s 758 mmHg 92%
    03:00 +23°C° 0 mm 2 m/s 758 mmHg 93%
    04:00 +23°C° 0 mm 2 m/s 758 mmHg 93%
    05:00 +23°C° 0 mm 1 m/s 758 mmHg 94%
    06:00 +25°C° 0 mm 2 m/s 758 mmHg 86%
    07:00 +26°C° 0 mm 2 m/s 758 mmHg 79%
    08:00 +28°C° 0 mm 2 m/s 759 mmHg 71%
    09:00 +29°C° 0 mm 2 m/s 758 mmHg 70%
    10:00 +29°C° 0 mm 3 m/s 758 mmHg 68%
    11:00 +30°C° 0 mm 3 m/s 758 mmHg 67%
    12:00 +30°C° 0 mm 3 m/s 757 mmHg 67%
    13:00 +30°C° 0 mm 3 m/s 757 mmHg 67%
    14:00 +31°C° 0 mm 3 m/s 756 mmHg 66%
    15:00 +30°C° 0 mm 3 m/s 756 mmHg 71%
    16:00 +29°C° 0 mm 3 m/s 756 mmHg 75%
    17:00 +28°C° 0 mm 2 m/s 756 mmHg 79%
    18:00 +27°C° 0.2 mm 2 m/s 756 mmHg 84%
    19:00 +26°C° 0.2 mm 2 m/s 757 mmHg 89%
    20:00 +25°C° 0.2 mm 1 m/s 757 mmHg 95%
    21:00 +25°C° 0.2 mm 1 m/s 757 mmHg 95%
    22:00 +25°C° 0.2 mm 1 m/s 757 mmHg 95%
    23:00 +25°C° 0.2 mm 1 m/s 758 mmHg 95%

    Après-demain, 17 Novembre, Samedi

    Heure Température Précipitation Vent Pression Humidité
    00:00 +24°C° 0 mm 1 m/s 757 mmHg 96%
    01:00 +24°C° 0 mm 1 m/s 757 mmHg 96%
    02:00 +24°C° 0 mm 1 m/s 756 mmHg 97%
    03:00 +24°C° 0.1 mm 2 m/s 756 mmHg 97%
    04:00 +24°C° 0.1 mm 2 m/s 756 mmHg 97%
    05:00 +24°C° 0.1 mm 2 m/s 757 mmHg 97%
    06:00 +24°C° 0.2 mm 3 m/s 757 mmHg 95%
    07:00 +25°C° 0.2 mm 4 m/s 757 mmHg 92%
    08:00 +25°C° 0.2 mm 5 m/s 758 mmHg 90%
    09:00 +24°C° 0.1 mm 6 m/s 758 mmHg 88%
    10:00 +24°C° 0.1 mm 6 m/s 757 mmHg 87%
    11:00 +24°C° 0.1 mm 7 m/s 757 mmHg 85%
    12:00 +24°C° 0 mm 7 m/s 757 mmHg 84%
    13:00 +24°C° 0 mm 6 m/s 757 mmHg 83%
    14:00 +24°C° 0 mm 6 m/s 756 mmHg 82%
    15:00 +23°C° 0.4 mm 6 m/s 757 mmHg 85%
    16:00 +23°C° 0.4 mm 6 m/s 757 mmHg 89%
    17:00 +22°C° 0.4 mm 5 m/s 757 mmHg 92%
    18:00 +22°C° 0.4 mm 5 m/s 758 mmHg 93%
    19:00 +22°C° 0.4 mm 4 m/s 758 mmHg 94%
    20:00 +21°C° 0.4 mm 4 m/s 759 mmHg 95%
    21:00 +21°C° 0.4 mm 4 m/s 759 mmHg 95%
    22:00 +21°C° 0.4 mm 4 m/s 760 mmHg 95%
    23:00 +21°C° 0.4 mm 4 m/s 760 mmHg 95%

    18 Novembre, Dimanche

    Heure Température Précipitation Vent Pression Humidité
    00:00 +21°C° 0.3 mm 4 m/s 759 mmHg 95%
    01:00 +21°C° 0.3 mm 4 m/s 759 mmHg 96%
    02:00 +21°C° 0.3 mm 4 m/s 758 mmHg 96%
    03:00 +21°C° 0.1 mm 4 m/s 758 mmHg 96%
    04:00 +20°C° 0.1 mm 4 m/s 758 mmHg 96%
    05:00 +20°C° 0.1 mm 4 m/s 759 mmHg 96%
    06:00 +20°C° 0.1 mm 4 m/s 759 mmHg 95%
    07:00 +20°C° 0.1 mm 4 m/s 759 mmHg 94%
    08:00 +21°C° 0.1 mm 4 m/s 760 mmHg 93%
    09:00 +21°C° 0.1 mm 3 m/s 760 mmHg 91%
    10:00 +21°C° 0.1 mm 3 m/s 760 mmHg 89%
    11:00 +22°C° 0.1 mm 3 m/s 759 mmHg 87%
    12:00 +22°C° 0.1 mm 3 m/s 759 mmHg 87%
    13:00 +21°C° 0.1 mm 3 m/s 759 mmHg 88%
    14:00 +21°C° 0.1 mm 3 m/s 758 mmHg 89%
    15:00 +21°C° 0.1 mm 4 m/s 759 mmHg 90%
    16:00 +21°C° 0.1 mm 4 m/s 759 mmHg 91%
    17:00 +21°C° 0.1 mm 4 m/s 759 mmHg 93%
    18:00 +20°C° 0.4 mm 4 m/s 760 mmHg 93%
    19:00 +20°C° 0.4 mm 3 m/s 761 mmHg 94%
    20:00 +20°C° 0.4 mm 3 m/s 762 mmHg 94%
    21:00 +20°C° 0.3 mm 3 m/s 762 mmHg 94%
    22:00 +20°C° 0.3 mm 2 m/s 762 mmHg 94%
    23:00 +19°C° 0.3 mm 2 m/s 762 mmHg 94%

    19 Novembre, Lundi

    Heure Température Précipitation Vent Pression Humidité
    00:00 +20°C° 0.1 mm 1 m/s 762 mmHg 94%
    01:00 +20°C° 0.1 mm 1 m/s 761 mmHg 94%
    02:00 +20°C° 0.1 mm 1 m/s 760 mmHg 94%
    03:00 +19°C° 0.1 mm 2 m/s 760 mmHg 94%
    04:00 +19°C° 0.1 mm 2 m/s 760 mmHg 95%
    05:00 +19°C° 0.1 mm 2 m/s 760 mmHg 95%
    06:00 +20°C° 0.1 mm 3 m/s 760 mmHg 94%
    07:00 +20°C° 0.1 mm 3 m/s 760 mmHg 93%
    08:00 +20°C° 0.1 mm 4 m/s 760 mmHg 93%
    09:00 +21°C° 0.1 mm 4 m/s 760 mmHg 90%
    10:00 +22°C° 0.1 mm 5 m/s 759 mmHg 87%
    11:00 +22°C° 0.1 mm 6 m/s 759 mmHg 85%
    12:00 +23°C° 0.1 mm 6 m/s 758 mmHg 85%
    13:00 +23°C° 0.1 mm 7 m/s 757 mmHg 84%
    14:00 +23°C° 0.1 mm 7 m/s 756 mmHg 84%
    15:00 +23°C° 0.4 mm 7 m/s 756 mmHg 88%
    16:00 +22°C° 0.4 mm 7 m/s 757 mmHg 91%
    17:00 +22°C° 0.4 mm 7 m/s 757 mmHg 94%
    18:00 +21°C° 0.5 mm 7 m/s 756 mmHg 95%
    19:00 +21°C° 0.5 mm 6 m/s 756 mmHg 95%
    20:00 +21°C° 0.5 mm 6 m/s 756 mmHg 96%
    21:00 +21°C° 0.5 mm 6 m/s 756 mmHg 95%
    22:00 +21°C° 0.5 mm 6 m/s 756 mmHg 95%
    23:00 +21°C° 0.5 mm 6 m/s 756 mmHg 95%

    20 Novembre, Mardi

    Heure Température Précipitation Vent Pression Humidité
    00:00 +21°C° 0.1 mm 7 m/s 755 mmHg 96%
    01:00 +21°C° 0.1 mm 8 m/s 754 mmHg 96%
    02:00 +21°C° 0.1 mm 8 m/s 752 mmHg 96%
    03:00 +21°C° 0 mm 8 m/s 752 mmHg 96%
    04:00 +20°C° 0 mm 8 m/s 752 mmHg 96%
    05:00 +20°C° 0 mm 7 m/s 752 mmHg 96%
    06:00 +22°C° 0 mm 7 m/s 752 mmHg 89%
    07:00 +24°C° 0 mm 6 m/s 752 mmHg 83%
    08:00 +27°C° 0 mm 5 m/s 752 mmHg 76%
    09:00 +29°C° 0 mm 4 m/s 752 mmHg 69%
    10:00 +30°C° 0 mm 3 m/s 752 mmHg 63%
    11:00 +33°C° 0 mm 3 m/s 752 mmHg 56%
    12:00 +33°C° 0 mm 3 m/s 752 mmHg 58%
    13:00 +32°C° 0 mm 4 m/s 751 mmHg 60%
    14:00 +32°C° 0 mm 4 m/s 751 mmHg 62%
    15:00 +30°C° 0.2 mm 4 m/s 752 mmHg 67%
    16:00 +28°C° 0.2 mm 4 m/s 752 mmHg 73%
    17:00 +27°C° 0.2 mm 4 m/s 752 mmHg 78%
    18:00 +26°C° 0.7 mm 4 m/s 753 mmHg 84%
    19:00 +25°C° 0.7 mm 4 m/s 754 mmHg 89%
    20:00 +23°C° 0.7 mm 5 m/s 755 mmHg 94%
    21:00 +23°C° 0 mm 5 m/s 755 mmHg 94%
    22:00 +22°C° 0 mm 4 m/s 756 mmHg 94%
    23:00 +22°C° 0 mm 4 m/s 756 mmHg 94%
    Voir plus